Location: *
(48.8780°N, 19.2358°E)
Time: 01:14:08
(UTC+00:00)

STARLINK-69 - Pass Details

Date: 18 October 2019
Orbit: 548 x 551 km, 53.0° (Epoch: 14 November)

Event Time Altitude Azimuth Distance (km) Brightness Sun altitude
Rises 17:22:22 0° 269° (W) 2,715 9.0 -16.2°
Reaches altitude 10° 17:24:39 10° 274° (W) 1,823 7.6 -16.6°
Maximum altitude 17:28:42 50° 351° (N) 706 4.2 -17.2°
Enters shadow 17:30:29 29° 51° (NE) 1,028 4.6 -17.5°
